Regional Weather Roundup
Issued by NWS

Home | Current Version | Previous Version | Graphics & Text | Print | Product List | Glossary On
Versions: 1 2 3 4 5 6 7 8 9 10 11 12 13 14 15 16 17 18 19 20 21 22 23 24 25 26 27 28 29 30 31 32 33 34 35 36 37 38 39 40 41 42 43 44 45 46 47 48 49 50
000
ASUS43 KDMX 291207
RWRIA

WEATHER ROUNDUP FOR IOWA
NATIONAL WEATHER SERVICE DES MOINES IA
700 AM CDT SUN MAR 29 2015

NOTE: "FAIR" INDICATES FEW OR NO CLOUDS BELOW 12,000 FEET WITH NO
SIGNIFICANT WEATHER AND/OR OBSTRUCTIONS TO VISIBILITY.

* - THESE STATIONS ARE NOT NWS STATIONS...THUS NOT UNDER NWS
QUALITY CONTROL.  THEY ALSO DO NOT REPORT WEATHER SUCH
AS PRECIPITATION OR FOG.

IAZ001>003-012>014-020>022-031>034-043>046-291300-
   NORTHWEST IOWA

CITY           SKY/WX    TMP DP  RH WIND       PRES   REMARKS
CARROLL *      MOCLDY    39  36  87 SW24G33   29.80R WCI  28
CHEROKEE *     CLEAR     40  36  84 SW14G24   29.77R WCI  33
DENISON *      CLEAR     39  36  87 SW10G18   29.81R WCI  32
LE MARS *      CLEAR     41  36  81 S8        29.78R
ORANGE CITY *  CLEAR     43  36  75 SW12      29.75R
SHELDON *      CLEAR     41  37  87 SW12      29.72R
SIOUX CITY     MOCLDY    42  34  73 SW7       29.81R
6HR MIN TEMP:  42; 6HR MAX TEMP:  46; 6HR PCP: TRACE;

SPENCER        PTCLDY    42  35  76 SW21      29.72S
6HR MIN TEMP:  37; 6HR MAX TEMP:  42; 6HR PCP: TRACE;

STORM LAKE *   CLEAR     39  34  81 SW20G28   29.76R WCI  30
$$

IAZ055>058-069>071-079>083-090>094-291300-
   SOUTHWEST IOWA

CITY           SKY/WX    TMP DP  RH WIND       PRES   REMARKS
ATLANTIC *     PTCLDY    39  36  87 S15       29.88S WCI  31
AUDUBON *      CLEAR     39  34  81 S17G24    29.85S WCI  30
CLARINDA *     PTCLDY    39  37  93 S6        29.93F WCI  35
COUNCIL BLFS * PTCLDY    41  36  81 S10       29.88R
CRESTON *      MOCLDY    37  37 100 SW15      29.90R WCI  28
HARLAN  *      CLEAR     39  39 100 S9        29.89R WCI  33
LAMONI         LGT RAIN  38  34  85 S12       29.92R WCI  30
6HR MIN TEMP:  37; 6HR MAX TEMP:  38; 6HR PCP:  0.01;

RED OAK *      CLOUDY    41  36  81 S9        29.91S
SHENANDOAH *   CLEAR     41  37  87 SW8       29.92F
$$

IAZ047>049-059>061-072>074-084-291300-
   CENTRAL IOWA

CITY           SKY/WX    TMP DP  RH WIND       PRES   REMARKS
AMES           CLOUDY    37  32  82 S12       29.86R WCI  29
6HR MIN TEMP:  33; 6HR MAX TEMP:  37; 6HR PCP:  0.02;

ANKENY *       CLOUDY    37  34  87 S18G25    29.85S WCI  27
CHARITON *     MIX PCPN  37  34  87 S15       29.91R WCI  28
DES MOINES     CLOUDY    39  34  82 S20       29.86F WCI  29
6HR MIN TEMP:  37; 6HR MAX TEMP:  39; 6HR PCP:  0.03;

GRINNELL*      CLOUDY    34  30  86 S18       29.86F WCI  23
KNOXVILLE *    MIX PCPN  37  32  81 S18G26    29.86F WCI  27
MARSHALLTOWN   CLOUDY    34  29  82 S23G33    29.81F WCI  22
6HR MIN TEMP:  32; 6HR MAX TEMP:  34; 6HR PCP:  0.04;

PELLA *        LGT RAIN  36  34  95 S17       29.90R WCI  25
PERRY *          N/A     39  36  87 SW16G23   29.85R WCI  30
$$

IAZ004>006-015-016-023>025-035-036-291300-
   NORTH CENTRAL IOWA

CITY           SKY/WX    TMP DP  RH WIND       PRES   REMARKS
ALGONA *       CLEAR     36  36 100 S20G25    29.74F WCI  25
CLARION *      CLEAR     34  34 100 S18       29.78S WCI  23
ESTHERVILLE    CLEAR     37  33  85 SW17G28   29.69F WCI  27
6HR MIN TEMP:  34; 6HR MAX TEMP:  37; 6HR PCP:  0.03;

FORT DODGE *   MOCLDY    37  30  75 S18G26    29.79S WCI  27
MASON CITY     CLOUDY    34  29  82 S18G26    29.78R WCI  23
6HR MIN TEMP:  31; 6HR MAX TEMP:  35; 6HR PCP:  0.02;

FOREST CITY *  PTCLDY    32  32 100 S17       29.75F WCI  21
IOWA FALLS *     N/A     33  30  86 S18G25    29.82R WCI  22
$$

IAZ007>011-017>019-026>030-037>042-050>054-066-291300-
   NORTHEAST IOWA

CITY           SKY/WX    TMP DP  RH WIND       PRES   REMARKS
CEDAR RAPIDS   FRZ RAIN  32  26  78 S22G29    29.91F WCI  19
6HR MIN TEMP:  30; 6HR MAX TEMP:  32; 6HR PCP:  0.02;

CHARLES CITY * CLOUDY    34  30  86 S24G33    29.79S WCI  21
CLINTON *      PTCLDY    30  19  64 S17       30.03F WCI  18
DECORAH *      LGT RAIN  32  28  86 S17G26    29.80F WCI  21
DUBUQUE        MOCLDY    31  21  66 S21       29.96F WCI  18
6HR MIN TEMP:  29; 6HR MAX TEMP:  31;

MONTICELLO *   MOCLDY    32  23  69 SE14G23   29.96R WCI  22
OELWEIN *      LGT RAIN  32  30  93 S25G31    29.85F WCI  19
WATERLOO       CLOUDY    33  29  85 S21G28    29.82F WCI  21
6HR MIN TEMP:  31; 6HR MAX TEMP:  33; 6HR PCP:  0.05;

$$

IAZ064-065-067-068-078-291300-
   EAST CENTRAL IOWA

CITY           SKY/WX    TMP DP  RH WIND       PRES   REMARKS
DAVENPORT      PTCLDY    33  19  56 S23G29    30.00F WCI  21
6HR MIN TEMP:  31; 6HR MAX TEMP:  33;

IOWA CITY      CLOUDY    34  24  67 S16G23    29.98F WCI  24
6HR MIN TEMP:  30; 6HR MAX TEMP:  34;

MT. PLEASANT * MOCLDY    33  24  71 S12       30.02R WCI  24
MUSCATINE *    MOCLDY    36  23  60 S14       30.03F WCI  27
QUAD CITIES    MOCLDY    32  20  61 S15       30.02F WCI  22
6HR MIN TEMP:  30; 6HR MAX TEMP:  33;

$$

IAZ062-063-075>077-085>089-095>099-291300-
   SOUTHEAST IOWA

CITY           SKY/WX    TMP DP  RH WIND       PRES   REMARKS
BURLINGTON     PTCLDY    34  23  64 S16G26    30.05F WCI  24
6HR MIN TEMP:  32; 6HR MAX TEMP:  35;

FAIRFIELD *    LGT RAIN  34  28  80 S17       29.98F WCI  23
FORT MADISON * PTCLDY    32  25  74 S12       30.06R WCI  23
KEOKUK *       MOCLDY    37  27  65 S10G20    30.05R WCI  30
OSKALOOSA *    LGT RAIN  33  30  88 S14       29.96F WCI  24
CENTERVILLE *  PTCLDY    37  32  81 S17G29    29.91F WCI  28
OTTUMWA        LGT RAIN  35  30  82 S22G28    29.91F WCI  23
6HR MIN TEMP:  33; 6HR MAX TEMP:  35; 6HR PCP:  0.01;

WASHINGTON *   MIX PCPN  36  28  75 S18G26    29.97F WCI  25
$$

ABBREVIATIONS USED IN REMARKS
   TC - TEMPERATURES IN CELSIUS
  WCI - WIND CHILL INDEX
   HX - HEAT INDEX
  VSB - VISIBILITY
$$




USA.gov is the U.S. government's official web portal to all federal, state and local government web resources and services.